Weather History for Makassar, Indonesia

Change the Weather History Date:

Monday, April 21, 2014

  Actual Average Record
Temperature  
Mean Temperature 84 °F -  
Max Temperature 93 °F - - ()
Min Temperature 75 °F - - ()
Cooling Degree Days 19    
Growing Degree Days 34 (Base 50)    
Moisture  
Dew Point 77 °F    
Average Humidity 83    
Maximum Humidity 100    
Minimum Humidity 55    
Precipitation  
Precipitation 0.00 in - - ()
Sea Level Pressure  
Sea Level Pressure 29.80 in    
Wind  
Wind Speed 3 mph ()    
Max Wind Speed 12 mph    
Max Gust Speed -    
Visibility 5.4 miles    
Events      
T = Trace of Precipitation, MM = Missing Value Source: Averaged Metar Reports

Daily Weather History Graph

Daily Weather History Graph

Search for Another Location

Airport:

Trip Planner

Search our weather history database for the weather conditions in past years. The results will help you decide how hot, cold, wet, or windy it might be!

Date:

Astronomy

Apr. 21, 2014 Rise Set
Actual Time 6:01 AM CIT 5:59 PM CIT
Civil Twilight 5:40 AM CIT 6:20 PM CIT
Nautical Twilight 5:15 AM CIT 6:45 PM CIT
Astronomical Twilight 4:51 AM CIT 7:09 PM CIT
Moon 11:31 PM CIT (4/21) 11:14 AM CIT (4/21)
Length of Visible Light 12h 40m
Length of Day
11h 58m
Waning Gibbous, 63% of the Moon is Illuminated
Apr 21
Waning Gibbous
Apr 22
Last Quarter
Apr 29
New
May 7
First Quarter
May 15
Full

Hourly Weather History & Observations

Time (CIT) Temp. Heat Index Dew Point Humidity Pressure Visibility Wind Dir Wind Speed Gust Speed Precip Events Conditions
12:00 AM 78.8 °F - 78.8 °F 100% 29.83 in 5.6 mi East 2.3 mph - N/A   Partly Cloudy
12:30 AM 78.8 °F - 78.8 °F 100% 29.80 in 5.6 mi Variable 2.3 mph - N/A   Partly Cloudy
1:00 AM 78.8 °F - 78.8 °F 100% 29.80 in 5.6 mi ENE 3.5 mph - N/A   Partly Cloudy
1:30 AM 78.8 °F - 77.0 °F 94% 29.80 in 5.6 mi East 3.5 mph - N/A   Partly Cloudy
2:00 AM 78 °F - 77 °F 96% 29.79 in 6 mi ENE 2.3 mph - -   Scattered Clouds
2:00 AM 78.8 °F - 77.0 °F 94% 29.77 in 5.6 mi Variable 2.3 mph - N/A   Partly Cloudy
2:30 AM 78.8 °F - 77.0 °F 94% 29.77 in 5.6 mi Variable 2.3 mph - N/A   Partly Cloudy
3:00 AM 77.0 °F - 77.0 °F 100% 29.77 in 5.6 mi East 1.2 mph - N/A   Partly Cloudy
3:30 AM 77.0 °F - 77.0 °F 100% 29.77 in 5.6 mi NNE 3.5 mph - N/A   Unknown
4:00 AM 77.0 °F - 77.0 °F 100% 29.80 in 5.6 mi ENE 3.5 mph - N/A   Unknown
4:30 AM 77.0 °F - 75.2 °F 94% 29.80 in 5.6 mi Variable 2.3 mph - N/A   Partly Cloudy
5:00 AM 76 °F - 76 °F 100% 29.81 in 6 mi ENE 3.5 mph - -   Scattered Clouds
5:00 AM 77.0 °F - 75.2 °F 94% 29.80 in 6.2 mi ENE 3.5 mph - N/A   Partly Cloudy
5:30 AM 77.0 °F - 75.2 °F 94% 29.80 in 6.2 mi ENE 2.3 mph - N/A   Partly Cloudy
6:00 AM 75.2 °F - 75.2 °F 100% 29.80 in 6.2 mi East 1.2 mph - N/A   Partly Cloudy
6:30 AM 77.0 °F - 75.2 °F 94% 29.83 in 6.2 mi East 2.3 mph - N/A   Partly Cloudy
7:00 AM 77.0 °F - 73.4 °F 89% 29.83 in 6.2 mi East 3.5 mph - N/A   Partly Cloudy
7:30 AM 78.8 °F - 75.2 °F 89% 29.83 in 6.2 mi Variable 2.3 mph - N/A   Partly Cloudy
8:00 AM 80 °F - 75 °F 81% 29.85 in 6 mi East 3.5 mph - -   Scattered Clouds
8:00 AM 80.6 °F 86.2 °F 75.2 °F 84% 29.83 in 6.2 mi East 3.5 mph - N/A   Partly Cloudy
8:30 AM 82.4 °F 90.9 °F 77.0 °F 84% 29.83 in 6.2 mi Variable 2.3 mph - N/A   Partly Cloudy
9:00 AM 84.2 °F 94.1 °F 77.0 °F 79% 29.83 in 6.2 mi East 4.6 mph - N/A   Partly Cloudy
9:30 AM 87.8 °F 102.5 °F 78.8 °F 75% 29.83 in 6.2 mi East 3.5 mph - N/A   Partly Cloudy
10:00 AM 87.8 °F 102.5 °F 78.8 °F 75% 29.83 in 6.2 mi Variable 2.3 mph - N/A   Partly Cloudy
10:30 AM 89.6 °F 102.2 °F 77.0 °F 66% 29.83 in 6.2 mi NE 3.5 mph - N/A   Partly Cloudy
11:00 AM 90 °F - 76 °F 55% 29.82 in 6 mi East 2.3 mph - -   Scattered Clouds
11:00 AM 89.6 °F 99.8 °F 75.2 °F 62% 29.80 in 6.2 mi Variable 2.3 mph - N/A   Partly Cloudy
11:30 AM 91.4 °F 105.1 °F 77.0 °F 63% 29.80 in 6.2 mi Variable 2.3 mph - N/A   Partly Cloudy
12:00 PM 93.2 °F 110.2 °F 78.8 °F 63% 29.80 in 6.2 mi Variable 2.3 mph - N/A   Partly Cloudy
12:30 PM 91.4 °F 107.2 °F 78.8 °F 66% 29.77 in 6.2 mi West 5.8 mph - N/A   Partly Cloudy
1:00 PM 91.4 °F 105.1 °F 77.0 °F 63% 29.77 in 6.2 mi West 8.1 mph - N/A   Partly Cloudy
1:30 PM 89.6 °F 102.2 °F 77.0 °F 66% 29.77 in 6.2 mi WSW 11.5 mph - N/A   Scattered Clouds
2:00 PM 90 °F - 77 °F 58% 29.77 in 6 mi West 9.2 mph - -   Partly Cloudy
2:00 PM 91.4 °F 105.1 °F 77.0 °F 63% 29.77 in 6.2 mi West 9.2 mph - N/A   Partly Cloudy
2:30 PM 89.6 °F 102.2 °F 77.0 °F 66% 29.74 in 6.2 mi West 9.2 mph - N/A   Partly Cloudy
3:00 PM 89.6 °F 99.8 °F 75.2 °F 62% 29.74 in 6.2 mi West 8.1 mph - N/A   Partly Cloudy
3:30 PM 89.6 °F 102.2 °F 77.0 °F 66% 29.74 in 6.2 mi West 9.2 mph - N/A   Partly Cloudy
4:00 PM 87.8 °F 99.7 °F 77.0 °F 70% 29.74 in 5.6 mi West 9.2 mph - N/A   Partly Cloudy
4:30 PM 87.8 °F 99.7 °F 77.0 °F 70% 29.74 in 5.6 mi West 8.1 mph - N/A   Partly Cloudy
5:00 PM 88 °F - 77 °F 63% 29.76 in 5 mi West 8.1 mph - -   Scattered Clouds
5:00 PM 87.8 °F 99.7 °F 77.0 °F 70% 29.74 in 5.0 mi West 8.1 mph - N/A   Partly Cloudy
5:30 PM 87.8 °F 99.7 °F 77.0 °F 70% 29.77 in 5.0 mi West 6.9 mph - N/A   Partly Cloudy
6:00 PM 86.0 °F 99.3 °F 78.8 °F 79% 29.77 in 1.9 mi South 4.6 mph - N/A   Haze
6:30 PM 84.2 °F 96.1 °F 78.8 °F 84% 29.77 in 1.9 mi SSE 3.5 mph - N/A   Haze
7:00 PM 84.2 °F 96.1 °F 78.8 °F 84% 29.80 in 3.1 mi SE 4.6 mph - N/A   Haze
7:30 PM 82.4 °F 92.4 °F 78.8 °F 89% 29.80 in 3.1 mi SE 2.3 mph - N/A   Haze
8:00 PM 82 °F - 80 °F 90% 29.84 in 4 mi SE 2.3 mph - -   Partly Cloudy
8:00 PM 82.4 °F 92.4 °F 78.8 °F 89% 29.83 in 4.3 mi SE 2.3 mph - N/A   Scattered Clouds
8:30 PM 82.4 °F 92.4 °F 78.8 °F 89% 29.83 in 4.3 mi SE 2.3 mph - N/A   Scattered Clouds
9:00 PM 82.4 °F 92.4 °F 78.8 °F 89% 29.86 in 4.3 mi SSE 3.5 mph - N/A   Scattered Clouds
9:30 PM 80.6 °F 88.1 °F 78.8 °F 94% 29.86 in 4.3 mi SSE 3.5 mph - N/A   Partly Cloudy
10:00 PM 80.6 °F 88.1 °F 78.8 °F 94% 29.86 in 4.3 mi SE 3.5 mph - N/A   Scattered Clouds
10:30 PM 80.6 °F 88.1 °F 78.8 °F 94% 29.86 in 4.3 mi Variable 1.2 mph - N/A   Scattered Clouds
11:00 PM 80 °F - 79 °F 95% 29.88 in 4 mi East 2.3 mph - -   Scattered Clouds
11:00 PM 80.6 °F 88.1 °F 78.8 °F 94% 29.86 in 4.3 mi Variable 2.3 mph - N/A   Partly Cloudy
11:30 PM 78.8 °F - 78.8 °F 100% 29.86 in 4.3 mi East 2.3 mph - N/A   Partly Cloudy